Regional Weather Roundup
Issued by NWS

Home | Current Version | Previous Version | Text Only | Print | Product List | Glossary Off
Versions: 1 2 3 4 5 6 7 8 9 10 11 12 13 14 15 16 17 18 19 20 21 22 23 24 25 26 27 28 29 30 31 32 33 34 35 36 37 38 39 40 41 42 43 44 45 46 47 48 49 50

599
ASUS43 KMPX 260101
RWRMN
WEATHER ROUNDUP FOR MINNESOTA
NATIONAL WEATHER SERVICE TWIN CITIES/CHANHASSEN MN
800 PM CDT THU AUG 25 2016


NOTE: "FAIR" INDICATES FEW OR NO CLOUDS BELOW 12,000 FEET WITH NO
SIGNIFICANT WEATHER AND/OR OBSTRUCTIONS TO VISIBILITY. N/A MEANS
CURRENT SKY AND/OR WEATHER CONDITIONS ARE NOT AVAILABLE.

MNZ060>063-068>070-260200-
   Twin Cities Metro

CITY           SKY/WX    TMP DP  RH WIND       PRES   REMARKS
TWIN CITIES    PTCLDY    68  51  54 W10       30.08R
ST PAUL        CLEAR     67  52  58 W14       30.08R
CRYSTAL        CLEAR     66  52  60 W6        30.07R
BLAINE         CLEAR     66  54  63 W6        30.08R
LAKEVILLE      CLEAR     63  55  77 NW7       30.09R
EDEN PRAIRIE   CLEAR     67  52  58 W7        30.08R
LAKEVILLE      CLEAR     63  55  77 NW7       30.09R
SOUTH ST PAUL  CLEAR     67  51  56 W6        30.08R
LAKE ELMO      FAIR      64  54  68 W5        30.09R
$$
MNZ001>005-007-008-013>017-022>024-027-028-260200-
   Northwest Minnesota

CITY           SKY/WX    TMP DP  RH WIND       PRES   REMARKS
BEMIDJI        CLOUDY    60  50  69 W6        30.05S
HALLOCK        CLEAR     64  52  63 N3        30.02S
ROSEAU         CLEAR     63  54  72 CALM      30.02S
WARROAD        CLEAR     63  55  77 CALM      30.03R
CROOKSTON      CLEAR     64  52  63 NW5       30.06R
FOSSTON        MOCLDY    61  48  63 W3        30.07R
DETROIT LAKES  PTCLDY    63  54  72 W6        30.09S
MOORHEAD       CLOUDY    64  52  63 W5        30.08S
PARK RAPIDS    PTCLDY    60  51  72 W6        30.06S
MAHNOMEN       CLOUDY    63  51  65 W5        30.07S
$$
MNZ006-009>011-018-025>026-260200-
   North Central Minnesota

CITY           SKY/WX    TMP DP  RH WIND       PRES   REMARKS
BAUDETTE       PTCLDY    59  51  75 W5        30.01S
FLAG ISLAND    CLEAR     64  52  63 CALM      30.00R
INTL FALLS     CLEAR     58  52  80 NW8       30.00R
WASKISH        MOCLDY    63  52  67 NW7       30.03S
BIG FORK       CLOUDY    59  54  82 CALM      30.03R
LONGVILLE      MOCLDY    61  54  77 CALM      30.05S
GRAND RAPIDS   CLOUDY    61  54  77 W9        30.06R
ORR            MOCLDY    57  54  88 W6        29.98R
COOK           CLOUDY    59  55  88 W6        30.01R
WALKER         MOCLDY    59  53  78 W3        30.06R
$$
MNZ012-019>021-037-260200-
   Northeast Minnesota

CITY           SKY/WX    TMP DP  RH WIND       PRES   REMARKS
DULUTH         MOCLDY    62  57  83 W10       30.01S
ELY            CLOUDY    59  57  94 W8        29.98S
HIBBING        CLOUDY    60  54  80 W7        30.02R
EVELETH        MOCLDY    63  53  69 NW9       30.02R
DULUTH HARBOR  MOCLDY    66  57  72 W14       30.01R
TWO HARBORS    CLOUDY    66  59  77 W5        29.98R
SILVER BAY     MOCLDY    64  57  77 CALM      29.96R
G MARAIS ARPRT MOCLDY    59  52  77 W5        29.96R
$$
MNZ029>031-032-039>041-046>048-054>057-064-260200-
   West Central Minnesota

CITY           SKY/WX    TMP DP  RH WIND       PRES   REMARKS
FERGUS FALLS   CLOUDY    63  55  77 W3        30.11R
WHEATON        CLOUDY    64  57  77 W3        30.12S
MORRIS         CLOUDY    63  57  82 W5        30.10S
ALEXANDRIA     CLOUDY    62  54  74 W7        30.11S
ELBOW LAKE     CLOUDY    61  56  83 W6        30.11R
WADENA         PTCLDY    59  54  82 W3        30.08S
GLENWOOD       CLOUDY    59  57  94 SW5       30.11S
APPLETON       CLEAR     63  54  72 NW7       30.11R
BENSON         PTCLDY    63  52  67 NW7       30.11S
ORTONVILLE     CLOUDY    63  54  72 CALM      30.11S
MADISON        CLEAR     63  54  72 NW6       30.12R
WILLMAR        FAIR      63  55  77 NW8       30.12R
$$
MNZ033>034-036-042>043-049>051-058-059-260200-
   Central Minnesota

CITY           SKY/WX    TMP DP  RH WIND       PRES   REMARKS
ST CLOUD       PTCLDY    63  55  75 W9        30.08R
SAUK CENTRE    CLOUDY    60  56  84 W5        30.10S
PAYNESVILLE    CLEAR     60  54  78 W5        30.10S
AITKIN         MOCLDY    64  50  59 CALM      30.05R
PINE RIVER     PTCLDY    63  54  72 CALM      30.09S
BRAINERD       CLOUDY    63  54  72 W8        30.06S
STAPLES        CLEAR     61  54  77 W5        30.08S
LONG PRAIRIE   CLOUDY    61  54  77 SW3       30.10R
LITTLE FALLS   CLOUDY    61  54  77 CALM      30.09R
LITCHFIELD     CLEAR     66  55  68 W5        30.11R
BUFFALO        PTCLDY    65  54  65 W9        30.10R
MAPLE LAKE     PTCLDY    65  56  71 W5        30.10R
HUTCHINSON     CLEAR     63  55  75 W6        30.11S
$$
MNZ037-044-045-052-053-260200-
   East Central Minnesota

CITY           SKY/WX    TMP DP  RH WIND       PRES   REMARKS
PRINCETON      PTCLDY    64  55  72 CALM      30.08R
MORA           CLOUDY    63  54  72 W7        30.08R
CAMBRIDGE      CLEAR     66  54  63 W5        30.06R
RUSH CITY      MOCLDY    63  54  74 W5        30.07R
MOOSE LAKE     PTCLDY    61  54  77 W6        30.02S
HINCKLEY       CLOUDY    63  55  77 W9        30.06R
CLOQUET        PTCLDY    63  54  72 W7        30.03R
MCGREGOR       MOCLDY    63  52  67 W6        30.05R
$$
MNZ071>073-080-081-089-090-097-098-260200-
   Southwest Minnesota

CITY           SKY/WX    TMP DP  RH WIND       PRES   REMARKS
MONTEVIDEO     CLEAR     63  52  67 N7        30.13R
GRANITE FALLS  CLEAR     65  55  71 W6        30.13S
CANBY          PTCLDY    64  54  69 NW5       30.13S
MARSHALL       MOCLDY    63  55  75 N5        30.12R
REDWOOD FALLS  CLEAR     65  54  67 N3        30.11R
OLIVIA         CLEAR     63  54  72 NW3       30.11S
PIPESTONE      CLEAR     68  52  56 NW3       30.13S
WINDOM         CLEAR     64  55  72 NW5       30.12S
WORTHINGTON    CLEAR     65  57  75 NW5       30.14R
JACKSON        CLEAR     64  54  68 NW6       30.13R
TRACY          PTCLDY    64  57  79 NW6       30.12S
$$
MNZ065>067-074>077-082>085-091>093-260200-
   South Central Minnesota

CITY           SKY/WX    TMP DP  RH WIND       PRES   REMARKS
MANKATO        PTCLDY    66  55  68 N7        30.10R
NEW ULM          N/A     64  55  72 NW5       30.10S
ST JAMES       CLEAR     61  54  77 NW3       30.11S
FAIRMONT       CLEAR     67  59  75 NW5       30.11R
GLENCOE        CLEAR     65  56  72 W7        30.10R
FARIBAULT      CLEAR     64  57  77 NW3       30.10R
OWATONNA       CLEAR     66  57  72 CALM      30.09S
WASECA         PTCLDY    63  55  77 NW3       30.11S
ALBERT LEA     CLEAR     66  59  77 CALM      30.10S
$$
MNZ078>079-086>088-094>096-260200-
   Southeast Minnesota

CITY           SKY/WX    TMP DP  RH WIND       PRES   REMARKS
ROCHESTER      CLEAR     65  59  81 NW7       30.10R
RED WING       PTCLDY    68  55  64 NW5       30.06R
STANTON        PTCLDY    66  57  72 NW3       30.07S
DODGE CENTER   CLEAR     64  57  77 NW6       30.10S
WINONA         CLEAR     70  55  60 NW5       30.07R
AUSTIN         CLEAR     66  57  72 NW5       30.10R
PRESTON        CLEAR     65  57  74 NW6       30.10R
$$
ABBREVIATIONS USED IN REMARKS
   TC - TEMPERATURES IN CELSIUS
  WCI - WIND CHILL INDEX
   HX - HEAT INDEX
  VSB - VISIBILITY
$$




USA.gov is the U.S. government's official web portal to all federal, state and local government web resources and services.